Wetbulb
50.57 51.48 52.80 55.21 56.54 57.11 59.41 59.41 60.15 60.85 60.80 61.80 64.37 63.75 62.98 62.77 63.50 64.22 63.49 62.81 64.12 65.22 66.80 67.08 67.81 67.64 67.93 66.98 66.26 64.97 64.84 64.31 64.14 63.56 63.15 62.85 62.79 61.95 60.64 61.64 61.05 59.34 59.82
49.07 49.84 51.19 52.71 54.43 55.76 57.26 58.38 57.92 59.47 59.58 59.84 60.00 61.96 62.34 62.73 62.49 63.04 63.39 62.91 63.37 64.32 65.10 66.44 66.84 68.04 67.82 67.10 66.69 65.23 65.10 64.45 63.66 63.31 62.86 62.70 62.11 61.03 60.39 60.73 60.35 59.55 59.19
47.35 48.16 49.52 50.54 51.61 52.76 54.79 56.90 58.60 58.78 59.42 59.50 58.95 59.81 60.99 61.51 61.30 61.95 62.40 62.62 62.67 62.90 64.68 65.82 66.14 66.99 67.58 67.38 66.80 65.63 65.37 64.55 63.63 62.45 62.55 62.24 60.97 60.50 59.81 61.05 59.57 59.18 59.31
46.30 46.40 47.97 49.36 50.50 51.28 52.62 55.17 55.47 56.12 57.18 58.44 58.32 58.35 59.05 59.78 58.95 59.11 59.99 61.28 62.24 62.66 63.37 64.78 65.07 66.31 66.54 67.29 66.91 66.32 65.76 64.56 63.13 62.10 61.97 61.61 60.07 59.99 59.76 59.38 59.19 58.68 58.36
44.95 45.44 46.76 47.40 48.89 49.82 50.38 51.98 51.91 53.74 54.65 57.20 56.77 57.14 57.56 58.49 58.89 59.17 58.59 59.39 61.37 62.17 62.14 62.68 63.29 63.62 64.97 66.32 67.12 66.50 65.89 64.31 62.91 61.88 61.61 60.88 60.18 60.10 60.04 59.64 58.83 58.62 58.04
44.88 44.39 45.04 46.26 47.71 48.39 48.38 48.76 48.07 50.05 53.22 54.55 56.31 56.50 56.41 58.22 58.74 59.08 58.95 59.93 60.55 61.61 61.66 62.03 61.66 61.73 62.66 66.00 66.15 66.60 66.55 64.59 62.81 61.72 61.12 60.85 60.48 60.15 59.72 59.19 58.97 58.59 58.19
44.01 44.30 43.72 44.63 46.18 46.47 46.77 47.57 48.99 49.37 50.04 53.76 53.77 53.63 54.19 57.24 57.62 58.66 58.68 59.04 59.20 59.95 60.40 61.37 61.60 62.06 61.92 63.36 65.10 65.70 66.56 65.04 63.51 62.28 61.42 61.06 60.60 60.17 59.94 59.42 58.59 58.34 57.70
42.51 42.58 42.90 43.23 44.25 44.51 45.77 46.67 46.70 47.63 47.95 51.14 51.66 50.58 48.95 51.51 55.90 56.68 57.55 58.34 58.41 59.13 60.20 60.83 61.46 61.74 61.71 61.78 61.79 64.10 65.37 65.56 64.69 63.31 62.01 61.39 60.78 60.44 60.14 59.63 58.84 58.37 57.58
40.73 41.38 42.53 42.75 42.84 43.67 43.68 44.74 45.95 45.81 46.25 47.53 49.83 50.37 47.36 46.46 50.66 55.01 55.18 56.09 56.79 57.26 58.03 59.88 60.51 60.51 60.94 61.33 61.63 61.74 62.33 63.57 64.63 64.11 62.71 62.05 61.20 60.70 60.51 60.17 59.38 58.71 58.13
39.70 40.89 40.89 41.82 42.32 42.78 42.68 43.32 45.21 45.06 44.76 44.66 48.05 50.80 50.37 50.80 49.32 48.33 51.01 53.23 55.35 56.04 56.11 55.79 58.83 59.04 59.18 59.45 59.93 59.38 59.95 61.78 64.20 64.78 63.54 62.66 61.78 61.19 60.78 60.38 59.99 59.33 58.24
38.75 38.62 39.36 39.61 40.49 41.32 41.33 42.27 43.16 42.82 45.62 44.70 45.40 47.02 48.04 48.94 52.30 50.43 48.00 50.34 50.76 51.88 53.60 54.15 55.30 58.32 59.42 58.48 58.89 59.65 59.36 61.83 64.10 64.59 64.34 63.52 62.78 61.85 61.33 60.63 59.95 59.32 58.69
36.62 37.09 38.35 37.60 38.61 38.95 39.42 40.67 42.42 42.46 42.28 43.69 44.12 44.71 45.56 47.39 48.24 49.54 48.96 49.16 49.44 51.92 51.80 53.33 53.23 53.67 56.34 58.43 58.07 57.81 58.56 60.78 63.19 64.09 64.73 64.26 63.11 62.05 61.39 60.75 60.00 59.35 59.00
34.60 34.84 35.72 35.78 36.46 37.49 38.27 38.20 38.67 40.90 41.75 41.74 43.29 43.69 45.14 45.55 48.17 48.78 49.81 49.30 47.52 50.29 50.58 52.76 52.93 53.10 52.97 53.99 55.93 55.50 56.81 59.34 61.37 63.77 64.76 64.90 63.08 62.09 61.32 60.55 60.44 59.90 59.47
34.04 35.03 35.28 35.17 35.50 36.32 37.01 37.21 37.35 39.29 41.31 41.57 41.65 43.82 45.01 45.73 46.81 47.89 48.65 48.19 46.80 47.52 48.65 48.52 50.74 52.12 53.21 53.17 53.53 53.59 55.36 56.64 59.34 61.84 63.31 63.89 62.64 60.49 60.09 59.81 59.62 59.52 58.90
34.69 34.76 34.44 34.36 34.83 35.34 35.75 35.92 36.07 37.42 39.70 40.27 41.54 41.65 42.54 44.86 46.88 46.93 48.59 50.32 49.25 43.08 46.33 48.75 47.68 48.22 51.14 50.99 51.63 52.47 53.58 54.06 56.63 58.32 59.78 60.17 59.92 58.78 58.79 59.16 58.98 58.63 57.57
33.50 33.49 33.32 33.48 33.88 34.51 34.77 34.81 35.03 36.90 38.09 39.50 40.81 40.65 41.56 43.73 46.04 47.59 47.70 49.38 49.36 49.17 45.89 48.24 46.46 46.75 49.59 49.68 50.13 50.46 51.04 50.98 54.08 55.99 56.84 56.88 58.00 57.71 57.75 57.79 57.83 56.79 54.02
32.57 32.76 33.12 33.17 33.23 33.40 33.94 33.69 33.93 35.08 36.14 37.55 38.30 39.39 40.33 41.72 43.12 45.76 47.59 47.95 48.94 47.93 47.52 47.86 45.49 44.03 46.29 47.20 47.96 48.77 49.44 50.33 51.65 54.07 55.42 56.73 56.19 56.24 56.45 55.92 54.21 52.37 51.27
33.11 32.95 32.63 32.62 32.77 33.14 33.43 33.28 32.95 34.32 34.68 35.17 36.80 38.29 38.68 40.28 40.69 42.97 44.99 46.34 47.08 48.45 47.34 47.54 45.03 44.32 44.98 46.51 46.09 45.64 46.04 47.76 49.24 52.04 54.83 55.26 55.44 54.54 53.09 52.04 50.97 49.99 49.15
31.93 32.30 32.55 31.86 31.74 32.15 32.40 32.79 32.87 33.22 33.70 34.43 35.40 36.35 37.77 38.39 38.20 40.60 42.11 44.43 46.09 47.73 47.46 47.64 43.18 42.37 41.80 43.39 41.59 41.66 42.53 45.30 47.49 49.70 52.67 52.37 52.11 51.66 50.99 50.14 49.23 48.18 47.01
30.53 30.60 30.93 31.07 31.51 31.98 32.24 32.36 32.61 32.43 32.79 34.03 35.08 35.90 37.72 37.62 37.35 38.41 40.63 42.33 44.53 45.56 47.16 46.95 42.68 40.32 40.01 41.06 40.99 39.14 38.44 38.29 40.99 44.67 46.95 47.54 48.45 49.51 49.03 48.35 47.34 45.91 45.01
29.84 29.81 29.42 29.72 30.61 31.16 31.96 31.88 32.83 33.20 33.37 33.79 35.04 36.20 37.49 38.36 39.42 39.83 39.76 40.57 42.42 43.90 45.70 46.34 41.35 39.28 37.27 37.94 39.30 39.27 35.96 34.86 34.64 37.05 37.09 36.35 38.29 41.22 45.09 46.41 44.93 44.45 43.73
28.40 28.74 28.63 28.91 28.98 30.67 33.24 34.46 34.57 33.21 33.60 33.29 32.88 34.60 36.22 37.98 38.90 40.14 40.80 41.93 42.00 40.52 41.37 44.35 42.62 41.19 38.62 39.38 39.82 38.98 34.66 35.08 33.31 35.58 33.64 31.48 34.71 33.83 35.52 38.90 43.85 43.27 42.00
27.44 27.62 28.09 28.60 28.54 29.69 33.21 34.58 35.35 33.95 33.89 33.65 33.82 34.31 35.06 36.38 38.29 38.30 39.89 41.87 42.82 44.15 44.53 43.80 45.06 44.03 40.69 41.41 40.16 37.59 36.88 36.46 33.76 33.53 33.63 28.94 31.85 30.68 32.86 38.50 40.34 40.10 39.19
26.00 26.75 27.49 28.57 29.16 30.34 33.60 34.90 36.08 34.76 34.75 34.68 34.59 34.40 34.42 35.19 36.87 37.63 37.77 38.09 39.45 41.70 43.72 45.88 46.62 45.85 45.06 42.88 41.62 40.23 38.72 31.80 32.09 32.02 33.04 28.31 30.51 29.73 31.41 33.04 37.37 37.40 37.61
25.13 25.84 27.48 28.27 28.91 29.50 33.47 34.91 35.36 34.48 34.17 34.07 35.36 35.78 35.90 35.69 38.04 39.27 37.62 36.70 37.07 39.62 43.63 46.59 47.73 47.10 45.67 44.58 42.11 36.09 33.63 33.48 28.50 29.71 30.19 29.36 29.62 29.89 30.95 31.52 34.35 35.86 35.66
25.64 26.74 27.55 29.12 31.24 30.32 33.68 35.29 35.58 34.73 33.35 34.14 35.21 35.93 38.16 38.16 39.28 40.47 39.14 38.42 35.96 38.25 40.54 40.39 44.23 45.72 45.33 43.80 41.53 40.02 36.32 35.68 29.15 28.07 30.47 28.53 28.73 28.27 25.79 28.49 29.88 31.18 33.04
MSLP
1019.23 1018.49 1017.86 1017.24 1016.83 1016.52 1016.40 1016.16 1015.72 1015.18 1014.84 1014.41 1013.09 1014.02 1014.00 1014.39 1014.56 1014.97 1015.14 1014.99 1015.72 1015.77 1015.54 1015.63 1015.81 1016.19 1016.71 1017.05 1017.56 1017.97 1018.36 1018.94 1019.25 1019.50 1019.71 1020.05 1020.36 1020.70 1021.19 1021.74 1022.04 1022.43 1022.83
1019.78 1019.29 1018.45 1017.71 1017.17 1016.86 1016.60 1016.22 1016.04 1015.46 1014.93 1014.61 1014.66 1013.92 1012.96 1013.61 1014.24 1014.76 1015.09 1015.38 1015.52 1015.41 1015.47 1015.59 1015.73 1015.98 1016.42 1016.61 1017.30 1017.77 1018.14 1018.61 1019.01 1019.44 1019.77 1019.98 1020.25 1020.64 1021.17 1021.68 1022.02 1022.57 1022.87
1020.25 1019.79 1019.04 1018.22 1017.63 1017.13 1016.71 1016.18 1015.65 1015.34 1015.08 1014.86 1014.72 1014.17 1013.30 1013.37 1013.88 1014.44 1014.60 1015.20 1015.42 1015.24 1015.14 1015.41 1015.50 1015.70 1016.12 1016.38 1016.66 1017.29 1017.78 1018.30 1018.89 1019.25 1019.51 1020.01 1020.29 1020.59 1021.14 1021.48 1021.91 1022.44 1022.73
1020.54 1020.27 1019.61 1018.79 1018.04 1017.35 1016.66 1016.33 1016.27 1015.76 1015.32 1014.88 1014.54 1014.68 1014.51 1013.97 1014.27 1014.72 1014.25 1014.50 1014.92 1014.88 1014.98 1015.11 1015.33 1015.46 1015.83 1016.14 1016.41 1016.77 1017.25 1017.86 1018.52 1019.05 1019.50 1019.73 1020.24 1020.74 1021.08 1021.49 1021.93 1022.23 1022.54
1020.88 1020.48 1019.97 1019.41 1018.62 1017.72 1017.10 1016.77 1016.58 1016.38 1015.76 1014.94 1014.58 1014.26 1014.16 1014.21 1014.43 1014.35 1014.48 1014.42 1014.17 1014.52 1014.51 1014.54 1014.72 1015.10 1015.43 1015.63 1016.06 1016.65 1016.86 1017.35 1018.14 1018.70 1019.22 1019.62 1020.04 1020.59 1021.01 1021.35 1021.74 1022.11 1022.41
1020.91 1020.55 1020.19 1019.56 1019.01 1018.39 1017.71 1017.12 1017.02 1016.84 1016.27 1015.43 1014.75 1014.46 1014.22 1014.14 1014.27 1014.17 1014.04 1013.97 1014.07 1014.28 1014.10 1014.25 1014.36 1014.67 1014.94 1015.14 1015.52 1016.03 1016.51 1016.73 1017.59 1018.45 1018.86 1019.40 1019.81 1020.18 1020.68 1021.30 1021.68 1022.01 1022.23
1020.80 1020.33 1020.07 1019.76 1019.18 1018.74 1018.21 1017.73 1017.12 1016.85 1016.40 1015.67 1015.13 1014.44 1014.12 1013.82 1013.87 1013.78 1013.88 1013.90 1013.94 1013.77 1013.76 1013.87 1014.09 1014.12 1014.42 1014.60 1014.94 1015.39 1015.90 1016.73 1017.23 1017.78 1018.58 1019.00 1019.44 1019.96 1020.20 1020.80 1021.54 1021.81 1022.18
1020.60 1020.16 1019.79 1019.50 1019.11 1018.68 1018.20 1017.89 1017.41 1016.98 1016.63 1016.12 1015.58 1014.87 1014.33 1013.74 1013.40 1013.26 1013.27 1013.41 1013.56 1013.43 1013.35 1013.33 1013.58 1013.60 1014.06 1014.23 1014.59 1014.88 1015.38 1015.92 1016.35 1017.09 1017.83 1018.35 1018.86 1019.37 1019.77 1020.27 1021.08 1021.51 1021.95
1020.47 1020.07 1019.58 1019.21 1018.87 1018.59 1018.23 1017.88 1017.50 1017.41 1016.68 1016.21 1015.98 1015.69 1014.68 1013.99 1013.37 1013.02 1013.09 1013.26 1013.26 1013.31 1013.36 1013.16 1013.07 1013.36 1013.56 1013.80 1014.04 1014.38 1014.71 1015.24 1015.94 1016.23 1016.92 1017.48 1018.21 1018.79 1019.18 1019.81 1020.38 1020.97 1021.46
1020.30 1019.86 1019.57 1019.15 1018.67 1018.36 1018.12 1017.82 1017.54 1017.37 1017.08 1016.41 1015.93 1015.12 1015.05 1014.77 1014.12 1013.52 1013.33 1013.23 1013.18 1013.35 1013.19 1013.40 1013.22 1013.27 1013.59 1013.61 1013.67 1013.86 1014.25 1014.70 1015.35 1015.80 1015.91 1016.50 1017.54 1018.12 1018.70 1019.15 1019.65 1020.29 1020.87
1020.17 1019.85 1019.46 1019.10 1018.78 1018.42 1018.18 1017.91 1017.56 1017.33 1016.90 1016.59 1016.36 1015.76 1015.21 1014.62 1014.02 1013.83 1013.64 1013.37 1013.34 1013.22 1013.09 1013.19 1013.21 1013.12 1013.31 1013.28 1013.44 1013.62 1013.84 1014.33 1014.62 1015.07 1015.28 1015.72 1016.37 1017.18 1018.00 1018.48 1019.00 1019.61 1020.23
1020.23 1019.87 1019.45 1019.13 1018.89 1018.58 1018.12 1017.72 1017.40 1016.98 1016.75 1016.41 1016.22 1015.85 1015.51 1014.91 1014.15 1013.86 1013.61 1013.44 1013.22 1012.84 1012.74 1012.76 1013.12 1013.15 1013.15 1013.04 1013.20 1013.28 1013.65 1013.92 1013.97 1014.37 1014.45 1014.87 1015.47 1016.28 1017.10 1017.74 1018.30 1019.04 1019.79
1020.32 1019.84 1019.46 1019.08 1018.81 1018.55 1018.05 1017.60 1017.24 1016.76 1016.32 1016.09 1015.74 1015.50 1015.27 1014.84 1014.57 1014.00 1013.41 1013.11 1012.88 1012.49 1012.62 1012.50 1012.68 1012.68 1012.91 1013.14 1013.12 1013.03 1013.25 1013.52 1013.67 1013.57 1013.68 1014.20 1014.53 1015.42 1016.22 1016.87 1017.66 1018.41 1019.37
1020.26 1019.65 1019.30 1018.89 1018.48 1018.27 1017.94 1017.47 1017.04 1016.47 1015.94 1015.62 1015.39 1015.12 1014.76 1014.43 1014.30 1014.02 1013.57 1012.99 1012.80 1012.55 1012.52 1012.41 1012.26 1012.41 1012.55 1012.88 1012.84 1012.86 1012.92 1012.95 1013.25 1013.14 1013.47 1013.47 1013.68 1014.58 1015.81 1016.60 1017.43 1018.24 1019.00
1020.00 1019.32 1019.11 1018.71 1018.30 1017.98 1017.68 1017.28 1016.75 1016.17 1015.62 1015.20 1014.99 1014.79 1014.64 1014.20 1013.86 1013.52 1013.21 1012.86 1012.56 1012.38 1012.24 1012.12 1012.42 1012.43 1012.56 1012.79 1012.93 1013.00 1012.94 1012.95 1012.80 1013.06 1013.07 1013.12 1013.41 1013.70 1015.05 1015.67 1016.96 1018.02 1018.81
1019.68 1019.25 1018.83 1018.45 1018.07 1017.74 1017.41 1016.96 1016.41 1015.81 1015.29 1014.70 1014.46 1014.29 1014.14 1013.79 1013.38 1013.10 1012.81 1012.55 1012.33 1012.19 1011.95 1011.94 1012.50 1012.89 1012.92 1012.98 1013.07 1013.08 1012.89 1012.95 1013.02 1013.19 1013.31 1012.77 1012.48 1012.85 1013.73 1015.24 1016.35 1017.72 1018.76
1019.38 1018.89 1018.45 1018.04 1017.69 1017.26 1016.91 1016.51 1016.10 1015.57 1015.03 1014.39 1014.09 1013.69 1013.48 1013.43 1013.20 1012.79 1012.30 1012.17 1011.91 1011.92 1011.93 1011.93 1012.41 1012.88 1013.05 1013.20 1013.12 1013.06 1013.13 1013.10 1012.98 1012.84 1012.68 1012.59 1013.00 1013.28 1013.52 1014.89 1016.60 1017.73 1018.75
1019.02 1018.52 1018.13 1017.69 1017.32 1016.83 1016.38 1015.93 1015.48 1014.98 1014.55 1014.15 1013.62 1013.25 1013.07 1012.90 1012.61 1012.35 1012.14 1011.75 1011.61 1011.55 1011.72 1012.03 1011.97 1012.71 1013.09 1013.27 1013.13 1013.25 1013.36 1013.18 1012.82 1012.57 1012.58 1012.56 1013.07 1013.70 1014.41 1015.41 1016.62 1017.70 1018.55
1018.66 1018.22 1017.92 1017.45 1016.97 1016.51 1015.97 1015.42 1014.95 1014.46 1014.00 1013.64 1013.28 1012.91 1012.51 1012.54 1012.39 1012.14 1011.88 1011.52 1011.37 1011.18 1011.23 1011.52 1012.10 1012.45 1013.22 1013.39 1013.58 1013.65 1013.90 1013.56 1013.24 1013.10 1013.20 1013.19 1013.58 1014.60 1014.87 1015.68 1016.68 1017.92 1018.79
1018.34 1017.89 1017.57 1017.15 1016.62 1016.07 1015.43 1014.81 1014.28 1013.78 1013.39 1013.00 1012.71 1012.40 1012.01 1011.97 1012.08 1011.96 1011.74 1011.45 1011.12 1010.93 1010.64 1010.84 1011.62 1012.47 1012.90 1013.35 1013.43 1013.80 1014.49 1014.41 1014.51 1014.61 1014.74 1014.86 1015.27 1015.72 1016.05 1016.68 1017.64 1018.40 1018.95
1017.94 1017.49 1017.04 1016.60 1016.05 1015.43 1014.77 1014.16 1013.54 1013.01 1012.59 1012.27 1012.02 1011.82 1011.40 1011.38 1011.56 1011.51 1011.35 1011.11 1010.91 1010.57 1010.35 1010.26 1011.01 1011.87 1012.49 1013.11 1013.20 1013.60 1014.71 1015.12 1015.65 1015.85 1015.85 1016.49 1016.65 1016.76 1017.21 1017.71 1018.25 1018.93 1019.76
1017.43 1016.88 1016.30 1015.77 1015.23 1014.62 1013.91 1013.36 1012.82 1012.42 1012.02 1011.69 1011.41 1011.17 1010.92 1010.80 1010.74 1010.66 1010.57 1010.59 1010.59 1010.47 1010.19 1010.08 1009.97 1010.64 1011.23 1012.02 1012.79 1013.14 1014.43 1015.27 1016.31 1016.47 1016.85 1017.80 1017.72 1018.03 1018.21 1018.40 1018.78 1019.56 1020.28
1016.77 1016.12 1015.49 1014.91 1014.26 1013.64 1012.99 1012.42 1011.90 1011.50 1011.17 1010.94 1010.76 1010.54 1010.21 1009.92 1009.94 1009.75 1009.64 1009.60 1009.50 1009.47 1009.51 1009.43 1009.13 1009.17 1010.22 1010.77 1011.82 1012.93 1013.57 1014.47 1015.21 1016.01 1016.69 1018.33 1018.46 1018.85 1019.06 1018.97 1019.50 1020.05 1020.57
1016.15 1015.39 1014.65 1013.97 1013.32 1012.52 1011.97 1011.43 1010.94 1010.53 1010.24 1009.91 1009.70 1009.54 1009.42 1009.16 1009.09 1009.17 1008.96 1008.83 1008.65 1008.44 1008.31 1008.33 1008.54 1008.36 1008.73 1009.43 1010.27 1011.21 1012.46 1014.57 1015.37 1016.26 1016.63 1018.20 1018.76 1019.18 1019.73 1019.82 1019.99 1020.40 1020.74
1015.38 1014.64 1013.83 1012.97 1012.33 1011.43 1011.05 1010.42 1009.87 1009.52 1009.08 1008.79 1008.61 1008.46 1008.36 1008.15 1008.05 1008.11 1008.07 1007.93 1007.83 1007.67 1007.60 1007.34 1007.29 1007.58 1008.13 1008.77 1009.72 1011.41 1012.88 1013.92 1015.56 1016.43 1016.65 1017.28 1018.58 1019.33 1019.99 1020.35 1020.57 1020.68 1020.85
1014.63 1013.84 1012.81 1012.09 1011.30 1010.44 1009.81 1009.20 1008.69 1008.34 1007.90 1007.56 1007.34 1007.15 1007.05 1007.00 1007.01 1006.94 1006.95 1006.95 1006.96 1007.00 1007.11 1006.82 1006.74 1007.03 1007.58 1008.53 1009.05 1009.79 1011.15 1012.45 1014.07 1016.04 1016.28 1017.03 1018.14 1018.65 1019.96 1020.12 1020.45 1020.65 1020.91
Wind_Speed
6 5 5 5 5 4 5 4 4 4 6 5 9 7 5 6 5 3 2 3 9 12 12 11 14 17 19 19 17 16 16 17 18 17 17 17 18 16 15 13 13 12 14
8 7 6 5 4 5 6 4 3 3 3 5 6 5 4 5 5 2 1 3 11 13 15 14 13 17 19 20 19 17 18 19 18 18 17 18 18 16 16 14 14 13 13
9 10 7 5 5 7 8 6 5 4 3 3 5 4 5 1 3 5 5 4 7 11 14 19 15 17 19 22 21 20 21 20 19 18 18 18 17 17 17 16 15 15 15
10 9 7 7 7 6 7 6 6 6 4 3 3 3 4 1 3 4 3 2 4 5 8 16 14 14 17 21 20 22 24 21 19 18 18 19 16 17 18 17 15 16 14
10 8 8 7 8 6 5 6 7 8 9 4 4 3 3 3 6 5 7 7 7 4 4 9 14 12 13 17 22 21 23 24 20 19 19 18 18 19 18 18 17 16 15
7 6 7 9 8 6 5 6 6 8 8 8 4 4 4 4 4 6 6 6 5 6 5 6 5 6 13 17 22 23 25 24 20 19 21 20 20 20 19 18 17 17 16
7 6 4 6 7 7 6 6 5 7 7 6 6 3 4 6 7 5 5 5 6 6 5 5 4 4 6 15 21 20 17 19 22 23 22 22 22 21 21 19 18 18 16
8 9 8 7 5 6 6 5 5 4 4 5 4 3 3 3 5 7 7 7 7 4 5 6 5 5 6 6 10 22 25 26 26 25 25 24 23 23 22 21 20 19 18
8 10 9 6 7 5 5 5 4 5 5 6 6 4 3 3 2 1 4 3 4 3 3 4 5 5 5 5 8 14 21 24 26 28 28 27 25 24 24 23 22 21 19
8 7 8 10 6 5 7 5 5 3 3 6 5 3 6 5 3 2 1 2 2 3 3 4 3 4 5 4 7 11 15 20 27 30 28 27 26 26 25 25 24 22 20
6 7 8 9 7 4 6 8 7 5 4 4 6 5 7 5 6 5 5 3 2 4 3 5 4 3 6 5 4 6 12 18 28 28 31 30 31 29 28 26 24 22 21
5 6 7 7 7 8 8 7 7 6 5 7 6 7 6 4 3 6 6 5 4 3 4 3 4 4 3 3 6 8 10 17 24 29 32 32 31 30 29 26 25 22 21
7 6 7 6 7 8 9 9 10 9 5 5 8 6 6 8 6 7 7 4 4 3 2 2 4 3 3 3 3 5 10 14 22 31 28 31 32 30 27 26 25 23 22
9 8 9 6 8 10 10 9 9 9 7 5 7 7 7 6 7 6 7 3 3 4 2 3 2 3 2 3 3 4 4 10 17 21 29 30 25 26 23 23 23 23 22
10 11 9 9 10 10 10 10 8 10 9 5 6 5 7 7 7 7 7 6 4 3 3 3 3 1 1 1 2 2 3 3 9 13 19 26 22 24 26 25 22 21 21
10 10 10 10 10 11 10 10 9 10 10 6 6 6 7 7 7 7 6 7 4 5 4 3 2 2 2 2 2 2 3 5 6 9 12 13 22 23 29 26 22 22 22
10 11 11 11 11 11 11 10 10 11 12 10 9 6 9 9 7 7 4 6 4 3 6 2 2 2 1 2 2 2 2 3 4 9 8 7 9 10 19 21 22 25 22
12 13 12 12 12 12 12 11 11 11 10 11 10 8 7 8 10 8 6 7 6 5 3 7 2 2 1 1 3 3 3 3 3 7 7 7 12 22 27 28 28 25 23
13 13 13 14 16 15 13 12 12 12 11 11 11 11 7 8 9 7 8 7 6 6 6 6 2 2 2 1 3 4 3 4 7 15 12 17 24 22 25 27 26 24 22
13 13 13 14 14 15 15 13 13 12 12 11 11 11 10 9 11 10 9 10 8 8 8 6 3 3 2 1 2 4 3 5 5 6 11 13 14 17 21 22 20 20 20
12 13 14 14 15 13 11 14 13 12 12 12 11 11 11 11 15 15 9 10 9 7 6 7 4 3 3 3 5 4 3 2 5 3 5 5 4 5 7 14 15 18 16
14 13 14 14 15 11 21 24 21 12 12 12 13 12 12 14 15 21 22 22 17 11 9 8 6 6 6 4 4 7 6 4 3 2 3 3 3 5 4 5 15 16 14
14 14 14 14 15 14 24 24 24 13 12 11 12 12 12 11 14 13 16 19 19 21 22 12 8 9 7 9 9 8 8 4 3 5 5 3 2 5 3 6 12 11 10
15 14 14 15 14 14 25 25 25 14 11 12 13 14 14 14 13 13 13 12 12 11 12 11 14 9 10 12 15 11 11 6 8 3 2 4 1 3 2 3 8 8 9
14 14 14 15 15 15 24 26 22 12 12 13 13 13 13 14 18 23 15 15 15 12 11 17 15 15 15 20 15 11 9 11 4 2 1 4 3 4 2 2 2 6 6
15 13 16 15 20 17 23 27 22 9 11 10 11 13 23 19 24 25 15 13 13 11 6 3 6 12 17 19 28 15 13 12 6 3 3 4 5 4 3 2 4 2 3
Wind_Direction
344 330 329 330 323 347 332 319 315 311 331 341 245 232 200 190 181 187 251 313 269 284 280 257 208 199 188 186 184 183 176 175 167 164 160 160 154 159 150 151 141 132 150
345 341 324 327 335 351 316 298 312 335 304 324 343 321 237 140 146 165 174 295 271 262 269 254 227 204 198 191 190 186 183 179 176 174 170 167 162 153 157 166 156 152 142
348 340 327 330 342 337 315 318 309 292 293 271 272 331 320 107 118 193 182 223 256 268 257 252 231 214 205 202 193 191 187 181 181 183 179 174 171 165 174 166 155 164 165
347 341 332 332 338 330 326 325 340 325 292 286 286 221 262 329 255 268 336 224 229 239 225 254 235 225 218 214 211 197 186 181 187 190 189 180 176 178 176 177 174 173 166
338 341 329 326 327 326 334 346 350 334 324 302 268 268 236 213 227 240 247 261 260 240 224 226 219 228 229 217 208 210 196 181 187 194 194 188 182 184 182 177 175 172 177
316 327 322 328 328 326 332 348 343 318 312 308 302 277 240 236 221 211 224 235 237 237 233 213 206 215 217 215 212 208 204 187 185 197 195 191 188 187 186 185 182 180 177
328 304 289 307 316 320 323 321 324 319 316 314 311 267 260 230 226 224 213 228 238 231 224 217 212 188 214 220 207 203 199 196 194 193 199 195 192 193 190 183 191 185 185
316 313 312 309 300 305 314 308 325 313 303 304 302 290 285 288 228 230 225 212 221 229 243 214 203 197 203 202 206 201 203 206 199 192 200 199 198 195 195 188 190 192 188
309 312 295 291 300 306 301 300 297 302 312 314 300 302 291 250 294 148 232 243 233 211 242 249 210 219 212 192 194 211 211 208 199 197 201 198 200 200 197 194 189 194 192
301 297 321 309 294 305 301 297 304 263 291 296 314 281 303 272 284 329 257 231 188 221 215 266 254 227 237 214 201 201 211 206 197 209 198 199 202 202 202 200 195 193 196
296 318 305 310 309 302 302 297 283 293 263 279 287 306 301 288 249 238 271 247 242 228 219 210 213 231 217 215 211 214 206 210 204 208 210 203 200 201 203 201 197 198 196
306 298 306 315 310 307 300 305 299 280 274 274 274 277 271 289 318 254 240 253 236 231 202 184 207 213 239 234 208 196 207 214 218 218 217 207 207 202 202 200 198 196 198
305 303 295 305 301 298 299 305 299 286 264 263 271 269 275 273 283 292 268 248 229 250 214 212 202 207 228 234 252 227 203 212 227 224 218 223 207 203 198 197 198 197 194
300 300 299 297 304 303 299 294 290 286 267 258 256 273 275 270 275 279 282 248 267 237 202 201 199 213 216 240 250 281 254 224 232 229 231 234 215 194 189 199 202 196 189
300 306 306 306 304 293 294 295 287 286 283 260 253 252 273 281 267 266 276 275 264 236 232 221 196 237 143 354 282 305 294 285 259 251 245 237 216 183 187 187 190 193 176
296 301 300 298 297 293 289 289 290 285 285 271 262 244 261 278 279 256 256 261 262 277 220 174 171 157 160 179 247 284 300 301 274 264 263 270 210 185 184 180 178 159 149
303 302 302 298 292 290 287 282 280 284 280 276 277 247 263 269 274 290 254 261 264 241 258 201 112 124 115 171 95 50 345 282 265 259 277 233 149 160 155 138 137 140 137
305 304 301 297 297 294 289 283 283 280 281 285 279 263 260 271 275 277 281 272 252 254 235 252 149 133 123 99 98 65 10 11 345 260 217 173 164 145 139 139 141 142 140
305 306 303 299 297 296 294 288 283 282 279 274 277 280 251 268 275 280 283 277 274 254 234 228 173 104 127 166 85 65 16 49 54 57 97 121 127 132 135 139 141 142 140
304 301 300 297 293 290 290 288 283 279 277 273 271 270 262 252 260 265 266 270 263 273 230 212 145 151 136 146 111 113 73 30 58 56 71 93 98 116 126 130 133 133 137
298 299 296 292 289 286 283 285 280 275 276 278 280 280 263 247 252 255 263 271 284 266 277 205 146 169 138 160 176 143 102 103 40 20 79 36 54 85 122 128 132 136 141
299 294 291 288 287 282 285 286 287 279 274 270 273 270 266 261 258 262 259 257 258 265 266 277 169 181 169 156 140 149 139 145 131 289 84 51 33 70 70 82 126 139 148
298 294 291 289 285 281 284 285 281 273 268 260 258 262 265 260 255 255 258 255 255 251 239 247 246 182 162 175 153 149 164 153 142 138 115 87 32 91 46 105 124 136 149
298 295 292 288 285 281 287 286 285 283 271 261 253 252 256 260 252 258 257 254 257 256 242 232 238 198 187 170 174 176 163 112 84 78 107 120 159 90 69 73 140 156 155
297 293 289 287 285 283 285 286 284 271 262 259 253 250 251 251 250 251 247 252 254 257 268 243 216 196 173 169 149 128 146 142 104 181 148 109 148 113 118 136 147 170 182
293 292 291 285 282 285 282 284 286 271 263 258 254 248 248 248 249 249 245 239 244 244 216 180 205 194 171 168 164 169 163 170 128 125 196 112 139 136 111 131 160 154 142